NIMBUS 2 DEB

Satellite information

Favourite Embed

Satellite Type and Status

DEBRISIN ORBIT

Key statistics

Satellite NIMBUS 2 DEB at a glance.

Uptime

21603

Days in orbit

Revolutions

≈ 13.6

Per day

Orbit

SSO

Sun Synchronous Orbit

Inclination

100.5

Latest

Satellite identification and parameters

Extended collection of information and parameters for NIMBUS 2 DEB.

Object identification

Identified? True

Debris? True

Object name: NIMBUS 2 DEB

International designator: 1966-040G

Object number (NORAD): 25614

Object ID (CCSDS): 25614

Country: UNITED STATES OF AMERICA (US)

Current information (Y/N): Y

RCS size: SMALL

Orbital parameters

Period: 105.779 minutes

Inclination: 100.4992 deg

SMA: 7409.018 km

Apoapsis: 1073.112 km

Periapsis: 988.654 km

RAAN: 346.5788 deg

Eccentricy: 0.0056997

Argument of periapsis: 215.2838 deg

Mean anomaly: 271.1279 deg

Mean motion: 13.61324888 rev/day

Mean motion (dot): 0.00001585 rev/day2

B* drag term: 0.0021226 1/REarth

Two-line elements (TLE)

Creation date: July 6, 2025, 6:46 a.m.

Reference frame: TEME

Reference center: EARTH

Epoch: July 5, 2025, 10:58 p.m. UTC

TLE line 0: 0 NIMBUS 2 DEB

TLE line 1: 1 25614U 66040G 25186.95738032 .00001585 00000-0 21226-2 0 9997

TLE line 2: 2 25614 100.4992 346.5788 0056997 215.2838 271.1279 13.61324888423733

Live tracking on map

Real-time ground track for satellite NIMBUS 2 DEB.

In-orbit conjunctions

A list of the most updated potential collisions computed for object NIMBUS 2 DEB.

Target Orbit TCA Probability of collision Miss distance Type
COSMOS 1244 LEO 2025-04-21 21:41:52 0.0002855703 189.0 (m) PAYLOAD

Associated space launch

Nimbus 2, the second in a series of second-generation meteorological research-and-development satellites, added an additional medium-resolution infrared radiometer (MRIR) compared to Nimbus 1.

NIMBUS 2 DEB was lifted into orbit during the mission ‘Thor SLV-2A Agena B | Nimbus 2’, on board a Thor SLV-2A Agena B space rocket.

The launch took place on May 15, 1966, 7:55 a.m. from Space Launch Complex 2E.

For more information about the launch, click the button.

Launch to space Thor SLV-2A Agena B | Nimbus 2
Thor SLV-2A Agena B | Nimbus 2

Agency: N/A

Status: Launch Successful

Launch date: May 15, 1966, 7:55 a.m. UTC

Rocket: Thor SLV-2A Agena B

Launch pad: Space Launch Complex 2E

Location: Vandenberg SFB, CA, USA

...

Latest news about this satellite

There are no fresh news available about this satellite. Check back as we update our databases every day.


Newsletter sign-up

Weekly statistics, charts and insights to help you stay on top of the space industry.